Tracking 35055 objects as of 18-Aug-2026
HD Live streaming from Space Station
objects crossing your sky now

METEOR 2-8 DEB

Track METEOR 2-8 DEB now!
10-day predictions


NORAD ID: 36346
Int'l Code: 1982-025AG
Launch date: March 25, 1982
Source: Commonwealth of Independent States (former USSR) (CIS)
Launch site: PLESETSK MISSILE AND SPACE COMPLEX (PKMTR)

Note: This is SATELLITE DEBRIS
Your satellite tracking list
Your tracking list is empty




NASA's NSSDC Master Catalog

Two Line Element Set (TLE):
1 36346U 82025AG  26221.47217624  .00002839  00000-0  97507-3 0  9998
2 36346  82.5361 132.5538 0002620 128.3493 231.7932 14.35841017329427
Source of the keplerian elements: AFSPC